Regional Weather Roundup
Issued by NWS

Home | Current Version | Previous Version | Graphics & Text | Print | Product List | Glossary On
Versions: 1 2 3 4 5 6 7 8 9 10 11 12 13 14 15 16 17 18 19 20 21 22 23 24 25 26 27 28 29 30 31 32 33 34 35 36 37 38 39 40 41 42 43 44 45 46 47 48 49 50
000
ASUS43 KFSD 280802
RWRSD

WEATHER ROUNDUP FOR SOUTH DAKOTA
NATIONAL WEATHER SERVICE SIOUX FALLS SD
300 AM CDT THU APR 28 2016

NOTE: "FAIR" INDICATES FEW OR NO CLOUDS BELOW 12,000 FEET WITH NO
SIGNIFICANT WEATHER AND/OR OBSTRUCTIONS TO VISIBILITY.


SDZ001>005-009-010-012>017-280900-
NORTHWEST AND NORTH CENTRAL SOUTH DAKOTA

CITY           SKY/WX    TMP DP  RH WIND       PRES   REMARKS
BUFFALO          N/A     34  32  92 N10       29.92R WCI  26
FAITH            N/A     32  30  92 N12       29.94S WCI  23
MOBRIDGE       LGT RAIN  38  35  89 NE14      29.93R FOG
$$

SDZ012>016-024>037-041>051-057-063-072>074-280900-
SOUTHWEST AND SOUTH CENTRAL SOUTH DAKOTA

CITY           SKY/WX    TMP DP  RH WIND       PRES   REMARKS
RAPID CTY ARPT CLOUDY    32  31  96 N14       29.94S WCI  22
PIERRE         CLOUDY    36  34  92 NE15      29.90R
CUSTER         CLOUDY    27  21  78 VRB6      29.88S WCI  20
ELLSWORTH AFB  FOG       32  32 100 N12       29.94  VSB 1   WCI  23
PHILIP         CLOUDY    34  33  96 N12       29.93S WCI  25
PINE RIDGE     CLOUDY    31  29  92 NW7       29.92F WCI  24
WINNER         LGT RAIN  39  36  89 N12       29.86R FOG
$$

SDZ004>011-016>023-039-040-280900-
NORTHEAST SOUTH DAKOTA

CITY           SKY/WX    TMP DP  RH WIND       PRES   REMARKS
ABERDEEN       CLOUDY    36  33  89 N13       29.94F
WATERTOWN      MIX PCPN  37  31  78 NE14G23   29.86R
BROOKINGS      CLOUDY    39  37  92 NE17      29.81S
SISSETON         N/A     38  32  79 NE15      29.93S
$$

SDZ017-020-022-023-036>040-048>070-280900-
SOUTHEAST SOUTH DAKOTA

CITY           SKY/WX    TMP DP  RH WIND       PRES   REMARKS
SIOUX FALLS    LGT RAIN  41  38  89 NE14      29.77R
HURON          LGT RAIN  37  36  96 N13       29.87R
MITCHELL       CLOUDY    42  41  96 N13       29.83S FOG
YANKTON        CLOUDY    43  39  87 N8        29.76R
$$

ABBREVIATIONS USED IN REMARKS
   TC - TEMPERATURE IN CELSIUS
  WCI - WIND CHILL INDEX
   HX - HEAT INDEX
  VSB - VISIBILITY





USA.gov is the U.S. government's official web portal to all federal, state and local government web resources and services.